Regional Weather Roundup
Issued by NWS Little Rock, AR

Home | Current Version | Previous Version | Text Only | Print | Product List | Glossary On
Versions: 1 2 3 4 5 6 7 8 9 10 11 12 13 14 15 16 17 18 19 20 21 22 23 24 25 26 27 28 29 30 31 32 33 34 35 36 37 38 39 40 41 42 43 44 45 46 47 48 49 50
000
ASUS44 KLZK 091812
RWRLZK

WEATHER ROUNDUP FOR ARKANSAS
NATIONAL WEATHER SERVICE LITTLE ROCK AR
1200 PM CST FRI DEC 09 2016

NOTE: "FAIR" INDICATES FEW OR NO CLOUDS BELOW 12,000 FEET WITH NO
SIGNIFICANT WEATHER AND/OR OBSTRUCTIONS TO VISIBILITY.

ARZ001-003-010-029-091900-
NORTHWEST ARKANSAS

CITY           SKY/WX    TMP DP  RH WIND       PRES   REMARKS
FAYETTEVILLE   MOSUNNY   30  14  51 CALM      30.60F
6HR MIN TEMP:  10; 6HR MAX TEMP:  31;

FORT SMITH     CLOUDY    34  13  41 VRB5      30.66F WCI  30
6HR MIN TEMP:  18; 6HR MAX TEMP:  34;

HARRISON       SUNNY     29  13  51 E3        30.61F
6HR MIN TEMP:  13; 6HR MAX TEMP:  29;

BENTONVILLE    SUNNY     30  10  43 SE5       30.60F WCI  25
6HR MIN TEMP:  16; 6HR MAX TEMP:  30;

ROGERS         SUNNY     28  15  58 E6        30.60F WCI  22
6HR MIN TEMP:  12; 6HR MAX TEMP:  28;

SILOAM SPGS    PTSUNNY   30  14  51 SE7       30.60F WCI  23
6HR MIN TEMP:  12; 6HR MAX TEMP:  30;

HIGHFILL       MOSUNNY   30  14  51 SE3       30.59F
6HR MIN TEMP:  12; 6HR MAX TEMP:  30;

SPRINGDALE     SUNNY     30  12  47 E6        30.61F WCI  24
$$

ARZ004-005-016-091900-
NORTH CENTRAL ARKANSAS

CITY           SKY/WX    TMP DP  RH WIND       PRES   REMARKS
BATESVILLE     SUNNY     30  14  51 W5        30.68F WCI  25
6HR MIN TEMP:  19; 6HR MAX TEMP:  32;

FLIPPIN        SUNNY     28  10  47 CALM      30.63F
6HR MIN TEMP:  18; 6HR MAX TEMP:  28;

MTN HOME       SUNNY     29  13  51 CALM      30.63F
6HR MIN TEMP:  14; 6HR MAX TEMP:  29;

$$

ARZ040-041-091900-
WEST CENTRAL ARKANSAS

CITY           SKY/WX    TMP DP  RH WIND       PRES   REMARKS
MENA           MOSUNNY   36  18  48 E3        30.60F
MOUNT IDA      SUNNY     36  16  44 SW3       30.60F
6HR MIN TEMP:  18; 6HR MAX TEMP:  36;

$$

ARZ009-017-025-026-028-091900-
NORTHEAST ARKANSAS

CITY           SKY/WX    TMP DP  RH WIND       PRES   REMARKS
CORNING        FAIR      30  16  55 CALM      30.68F
JONESBORO      SUNNY     31  15  52 SE5       30.67F WCI  26
6HR MIN TEMP:  22; 6HR MAX TEMP:  31;

NEWPORT        SUNNY     30  17  58 N5        30.69F WCI  25
6HR MIN TEMP:  20; 6HR MAX TEMP:  31;

WALNUT RIDGE   SUNNY     30  12  47 NW3       30.67F
6HR MIN TEMP:  19; 6HR MAX TEMP:  30;

BLYTHEVILLE    SUNNY     35  18  49 N3        30.67F
6HR MIN TEMP:  21; 6HR MAX TEMP:  35;

NW BLYTHEVILLE SUNNY     32  19  59 NE9       30.67F WCI  24
$$

ARZ022-023-033-042-044-091900-
CENTRAL ARKANSAS

CITY           SKY/WX    TMP DP  RH WIND       PRES   REMARKS
LITTLE ROCK    MOSUNNY   33  15  47 NW3       30.68F
6HR MIN TEMP:  20; 6HR MAX TEMP:  34;

N LITTLE ROCK    N/A     34  17  49 E3        30.70F
6HR MIN TEMP:  22; 6HR MAX TEMP:  34;

JACKSONVILLE   SUNNY     34  15  46 VRB6      30.66F WCI  28
6HR MIN TEMP:  19; 6HR MAX TEMP:  34;

SEARCY         SUNNY     34  16  47 CALM      30.69F
6HR MIN TEMP:  17; 6HR MAX TEMP:  35;

HOT SPRINGS    SUNNY     34  15  46 VRB5      30.65F WCI  30
6HR MIN TEMP:  22; 6HR MAX TEMP:  35;

RUSSELLVILLE   SUNNY     33  13  43 CALM      30.66F
6HR MIN TEMP:  18; 6HR MAX TEMP:  33;

CLINTON        FAIR      32  14  47 VRB3      30.66F
$$

ARZ036-091900-
EAST ARKANSAS

CITY           SKY/WX    TMP DP  RH WIND       PRES   REMARKS
$$

ARZ050-053-066-070-073-091900-
SOUTHWEST ARKANSAS

CITY           SKY/WX    TMP DP  RH WIND       PRES   REMARKS
ARKADELPHIA    FAIR      35  19  52 N5        30.66F WCI  31
6HR MIN TEMP:  24; 6HR MAX TEMP:  35;

CAMDEN         MIX PCPN  39  16  38 NE6       30.65F
TEXARKANA      SUNNY     36  17  46 NE7       30.63F
6HR MIN TEMP:  24; 6HR MAX TEMP:  36;

EL DORADO      SUNNY     37  20  50 VRB7      30.64F
6HR MIN TEMP:  23; 6HR MAX TEMP:  37;

DE QUEEN       MOSUNNY   37  17  44 CALM      30.63F
6HR MIN TEMP:  19; 6HR MAX TEMP:  37;

$$

ARZ056-057-069-091900-
SOUTHEAST ARKANSAS

CITY           SKY/WX    TMP DP  RH WIND       PRES   REMARKS
PINE BLUFF     SUNNY     33  19  56 N7        30.67F WCI  27
6HR MIN TEMP:  25; 6HR MAX TEMP:  33; 6HR PCP: TRACE;

STUTTGART      SUNNY     34  16  47 N3        30.68F
6HR MIN TEMP:  25; 6HR MAX TEMP:  34;

MONTICELLO     SUNNY     36  19  50 VRB5      30.65F
6HR MIN TEMP:  25; 6HR MAX TEMP:  37;


$$





USA.gov is the U.S. government's official web portal to all federal, state and local government web resources and services.